Weather History for KSEZ - March, 2013

Change the Weather History Date:

Saturday, March 23, 2013

  Actual Average Record
Temperature  
Mean Temperature 51 °F -  
Max Temperature 60 °F 68 °F 73 °F (2012)
Min Temperature 42 °F 36 °F 33 °F (2011)
Degree Days  
Heating Degree Days 14    
Growing Degree Days 1 (Base 50)    
Moisture  
Dew Point 2 °F    
Average Humidity 14    
Maximum Humidity 23    
Minimum Humidity 8    
Precipitation  
Precipitation 0.00 in - - ()
Sea Level Pressure  
Sea Level Pressure 29.98 in    
Wind  
Wind Speed 9 mph (NNW)    
Max Wind Speed 21 mph    
Max Gust Speed 29 mph    
Visibility 10 miles    
Events      
Averages and records for this station are not official NWS values.
T = Trace of Precipitation, MM = Missing Value Source: NWS Daily Summary

Daily Weather History Graph

Daily Weather History Graph

Search for Another Location

Airport or City:

Trip Planner

Search our weather history database for the weather conditions in past years. The results will help you decide how hot, cold, wet, or windy it might be!

Date:

Astronomy

Mar. 23, 2013 Rise Set
Actual Time 6:26 AM MST 6:41 PM MST
Civil Twilight 6:00 AM MST 7:06 PM MST
Nautical Twilight 5:31 AM MST 7:36 PM MST
Astronomical Twilight 5:01 AM MST 8:06 PM MST
Moon 3:19 PM MST (3/23) 3:56 AM MST (3/23)
Length of Visible Light 13h 05m
Length of Day
12h 15m
Waxing Gibbous, 86% of the Moon is Illuminated
Mar 23
Waxing Gibbous
Mar 27
Full
Apr 2
Last Quarter
Apr 10
New
Apr 18
First Quarter

Hourly Weather History & Observations

Time (MST) Temp. Windchill Dew Point Humidity Pressure Visibility Wind Dir Wind Speed Gust Speed Precip Events Conditions
12:15 AM 51.8 °F - -0.4 °F 12% 29.88 in 10.0 mi Calm Calm - N/A   Clear
12:35 AM 51.8 °F - -0.4 °F 12% 29.88 in 10.0 mi West 8.1 mph - N/A   Clear
12:55 AM 51.8 °F - -0.4 °F 12% 29.88 in 10.0 mi WNW 13.8 mph 19.6 mph N/A   Clear
1:15 AM 51.8 °F - -0.4 °F 12% 29.88 in 10.0 mi WNW 10.4 mph - N/A   Clear
1:35 AM 51.8 °F - -0.4 °F 12% 29.89 in 10.0 mi NW 8.1 mph - N/A   Clear
1:55 AM 51.8 °F - -0.4 °F 12% 29.89 in 10.0 mi NW 9.2 mph - N/A   Clear
2:15 AM 51.8 °F - -0.4 °F 12% 29.89 in 10.0 mi West 6.9 mph - N/A   Clear
2:35 AM 50.0 °F - -0.4 °F 13% 29.88 in 10.0 mi West 5.8 mph - N/A   Clear
2:55 AM 50.0 °F - -0.4 °F 13% 29.88 in 10.0 mi West 6.9 mph - N/A   Clear
3:15 AM 50.0 °F - -0.4 °F 13% 29.88 in 10.0 mi West 6.9 mph - N/A   Clear
3:35 AM 50.0 °F - -0.4 °F 13% 29.88 in 10.0 mi WNW 8.1 mph - N/A   Clear
3:55 AM 46.4 °F 43.5 °F -0.4 °F 14% 29.89 in 10.0 mi NW 5.8 mph - N/A   Clear
4:35 AM 48.2 °F - -2.2 °F 12% 29.91 in 10.0 mi North 6.9 mph - N/A   Clear
4:55 AM 46.4 °F 41.1 °F -0.4 °F 14% 29.91 in 10.0 mi NNE 11.5 mph - N/A   Clear
5:15 AM 44.6 °F 38.8 °F -0.4 °F 15% 29.92 in 10.0 mi North 11.5 mph - N/A   Clear
5:35 AM 44.6 °F 38.8 °F 1.4 °F 17% 29.93 in 10.0 mi NNE 11.5 mph 17.3 mph N/A   Clear
5:55 AM 44.6 °F 38.8 °F 1.4 °F 17% 29.94 in 10.0 mi NNE 11.5 mph - N/A   Clear
6:15 AM 42.8 °F 36.6 °F 5.0 °F 21% 29.94 in 10.0 mi NE 11.5 mph 16.1 mph N/A   Clear
6:35 AM 42.8 °F 37.0 °F 5.0 °F 21% 29.96 in 10.0 mi NE 10.4 mph - N/A   Clear
6:55 AM 42.8 °F 38.6 °F 5.0 °F 21% 29.97 in 10.0 mi North 6.9 mph - N/A   Clear
7:15 AM 42.8 °F 38.0 °F 3.2 °F 19% 29.98 in 10.0 mi North 8.1 mph - N/A   Clear
7:35 AM 44.6 °F 40.2 °F 1.4 °F 17% 30.00 in 10.0 mi NNW 8.1 mph - N/A   Clear
7:55 AM 42.8 °F 38.0 °F 6.8 °F 23% 30.01 in 10.0 mi WNW 8.1 mph - N/A   Clear
8:15 AM 44.6 °F 40.7 °F 6.8 °F 21% 30.02 in 10.0 mi WNW 6.9 mph - N/A   Clear
8:55 AM 46.4 °F 42.4 °F 5.0 °F 18% 30.03 in 10.0 mi WNW 8.1 mph - N/A   Clear
9:15 AM 48.2 °F - 3.2 °F 16% 30.03 in 10.0 mi West 8.1 mph - N/A   Clear
9:35 AM 50.0 °F - 1.4 °F 14% 30.04 in 10.0 mi NW 6.9 mph - N/A   Clear
9:55 AM 51.8 °F - 1.4 °F 13% 30.04 in 10.0 mi NNW 15.0 mph - N/A   Clear
10:15 AM 51.8 °F - 3.2 °F 14% 30.04 in 10.0 mi WNW 16.1 mph 21.9 mph N/A   Clear
10:35 AM 51.8 °F - 1.4 °F 13% 30.04 in 10.0 mi NW 10.4 mph 18.4 mph N/A   Clear
10:55 AM 53.6 °F - 3.2 °F 13% 30.03 in 10.0 mi WNW 10.4 mph 17.3 mph N/A   Clear
11:15 AM 55.4 °F - 3.2 °F 12% 30.03 in 10.0 mi WSW 9.2 mph 17.3 mph N/A   Clear
11:35 AM 55.4 °F - 3.2 °F 12% 30.03 in 10.0 mi West 10.4 mph - N/A   Clear
11:55 AM 55.4 °F - 3.2 °F 12% 30.02 in 10.0 mi West 8.1 mph 20.7 mph N/A   Clear
12:15 PM 57.2 °F - 3.2 °F 11% 30.02 in 10.0 mi WNW 12.7 mph 21.9 mph N/A   Clear
12:35 PM 59.0 °F - 3.2 °F 11% 30.01 in 10.0 mi NW 15.0 mph - N/A   Clear
12:55 PM 59.0 °F - 3.2 °F 11% 30.00 in 10.0 mi NW 9.2 mph 19.6 mph N/A   Clear
1:15 PM 59.0 °F - 3.2 °F 11% 30.00 in 10.0 mi NW 16.1 mph 28.8 mph N/A   Clear
1:35 PM 59.0 °F - 3.2 °F 11% 30.00 in 10.0 mi NNW 19.6 mph 26.5 mph N/A   Clear
1:55 PM 60.8 °F - 3.2 °F 10% 30.00 in 10.0 mi NW 19.6 mph 26.5 mph N/A   Clear
2:15 PM 60.8 °F - 1.4 °F 9% 29.99 in 10.0 mi NW 20.7 mph 24.2 mph N/A   Clear
2:35 PM 59.0 °F - -0.4 °F 9% 29.97 in 10.0 mi WNW 15.0 mph 27.6 mph N/A   Clear
2:55 PM 59.0 °F - 1.4 °F 10% 29.98 in 10.0 mi NW 12.7 mph 23.0 mph N/A   Clear
3:15 PM 60.8 °F - 1.4 °F 9% 29.98 in 10.0 mi NW 16.1 mph 20.7 mph N/A   Clear
3:35 PM 60.8 °F - -2.2 °F 8% 29.99 in 10.0 mi NNW 10.4 mph 23.0 mph N/A   Clear
3:55 PM 60.8 °F - 1.4 °F 9% 29.99 in 10.0 mi NW 10.4 mph 17.3 mph N/A   Clear
4:15 PM 59.0 °F - -0.4 °F 9% 29.99 in 10.0 mi NW 10.4 mph - N/A   Clear
4:55 PM 59.0 °F - 1.4 °F 10% 29.99 in 10.0 mi NW 5.8 mph - N/A   Clear
5:15 PM 59.0 °F - 1.4 °F 10% 29.99 in 10.0 mi WNW 11.5 mph - N/A   Clear
5:35 PM 59.0 °F - 1.4 °F 10% 30.00 in 10.0 mi NW 15.0 mph 20.7 mph N/A   Clear
5:55 PM 57.2 °F - -0.4 °F 10% 30.00 in 10.0 mi NW 9.2 mph - N/A   Clear
6:15 PM 55.4 °F - 1.4 °F 11% 30.00 in 10.0 mi WNW 8.1 mph - N/A   Clear
6:35 PM 53.6 °F - 3.2 °F 13% 30.00 in 10.0 mi WNW 5.8 mph - N/A   Clear
6:55 PM 53.6 °F - 3.2 °F 13% 30.01 in 10.0 mi WNW 5.8 mph - N/A   Clear
7:15 PM 51.8 °F - 3.2 °F 14% 30.01 in 10.0 mi North 4.6 mph - N/A   Clear
7:55 PM 51.8 °F - 3.2 °F 14% 30.02 in 10.0 mi NNE 8.1 mph - N/A   Clear
8:15 PM 50.0 °F - 3.2 °F 15% 30.03 in 10.0 mi NE 9.2 mph - N/A   Clear
8:35 PM 50.0 °F - 3.2 °F 15% 30.03 in 10.0 mi NE 10.4 mph - N/A   Clear
8:55 PM 48.2 °F - 3.2 °F 16% 30.03 in 10.0 mi NE 12.7 mph - N/A   Clear
9:15 PM 48.2 °F - 3.2 °F 16% 30.04 in 10.0 mi NE 10.4 mph 16.1 mph N/A   Clear
9:35 PM 48.2 °F - 1.4 °F 15% 30.04 in 10.0 mi ENE 11.5 mph 19.6 mph N/A   Clear
9:55 PM 46.4 °F 41.1 °F 1.4 °F 16% 30.04 in 10.0 mi NE 11.5 mph 17.3 mph N/A   Clear
10:15 PM 46.4 °F 41.1 °F 1.4 °F 16% 30.04 in 10.0 mi NE 11.5 mph 17.3 mph N/A   Clear
10:35 PM 46.4 °F 41.1 °F 1.4 °F 16% 30.04 in 10.0 mi NE 11.5 mph 18.4 mph N/A   Clear
10:55 PM 46.4 °F 41.1 °F 1.4 °F 16% 30.05 in 10.0 mi NE 11.5 mph - N/A   Clear
11:15 PM 46.4 °F 41.1 °F 1.4 °F 16% 30.05 in 10.0 mi ENE 11.5 mph - N/A   Clear
11:35 PM 46.4 °F 41.9 °F 1.4 °F 16% 30.06 in 10.0 mi ENE 9.2 mph - N/A   Clear
11:55 PM 44.6 °F 41.4 °F 1.4 °F 17% 30.07 in 10.0 mi ENE 5.8 mph - N/A   Clear